| time (UTC) | temp C | wind direction | speed KPH | gust KPH | rain 1hr cm | rain 24hr cm | rain mn cm | humidity % | barometer mb |
| 20260508102823 | 15 | 192 | 0.0 | 0.0 | 0.00 | 0.03 | 0.03 | 93 | 1015.6 |
| 20260508102321 | 15 | 192 | 0.0 | 0.0 | 0.00 | 0.03 | 0.03 | 93 | 1015.5 |
| 20260508101818 | 15 | 192 | 0.0 | 0.0 | 0.00 | 0.03 | 0.03 | 93 | 1015.5 |
| 20260508101315 | 15 | 192 | 0.0 | 0.0 | 0.00 | 0.03 | 0.03 | 93 | 1015.5 |
| 20260508100813 | 15 | 191 | 0.0 | 0.0 | 0.00 | 0.03 | 0.03 | 93 | 1015.5 |
| 20260508100311 | 15 | 191 | 0.0 | 0.0 | 0.00 | 0.03 | 0.03 | 94 | 1015.5 |
| 20260508095806 | 15 | 192 | 0.0 | 0.0 | 0.00 | 0.03 | 0.03 | 94 | 1015.5 |
| 20260508095306 | 16 | 192 | 0.0 | 0.0 | 0.00 | 0.03 | 0.03 | 94 | 1015.4 |
| 20260508094801 | 15 | 192 | 0.0 | 0.0 | 0.00 | 0.03 | 0.03 | 94 | 1015.5 |
| 20260508094258 | 15 | 192 | 0.0 | 0.0 | 0.00 | 0.03 | 0.03 | 93 | 1015.6 |
| 20260508093755 | 16 | 192 | 0.0 | 0.0 | 0.00 | 0.03 | 0.03 | 93 | 1015.6 |
| 20260508093253 | 16 | 192 | 0.0 | 0.0 | 0.00 | 0.03 | 0.03 | 93 | 1015.9 |
| 20260508092749 | 16 | 192 | 0.0 | 0.0 | 0.00 | 0.03 | 0.03 | 93 | 1015.9 |
| 20260508092248 | 16 | 191 | 0.0 | 0.0 | 0.00 | 0.03 | 0.03 | 93 | 1015.6 |
| 20260508091745 | 16 | 191 | 0.0 | 0.0 | 0.00 | 0.03 | 0.03 | 93 | 1015.7 |
| 20260508091242 | 16 | 190 | 0.0 | 0.0 | 0.00 | 0.03 | 0.03 | 93 | 1015.7 |
| 20260508090740 | 16 | 190 | 0.0 | 0.0 | 0.00 | 0.03 | 0.03 | 92 | 1015.6 |
| 20260508090237 | 16 | 193 | 0.0 | 1.6 | 0.00 | 0.03 | 0.03 | 92 | 1015.8 |
| 20260508085733 | 16 | 193 | 0.0 | 0.0 | 0.00 | 0.03 | 0.03 | 92 | 1015.9 |
| 20260508085230 | 16 | 192 | 0.0 | 1.6 | 0.00 | 0.03 | 0.03 | 92 | 1015.6 |
| 20260508084726 | 16 | 184 | 0.0 | 0.0 | 0.00 | 0.03 | 0.03 | 92 | 1015.7 |
| 20260508084224 | 16 | 175 | 0.0 | 0.0 | 0.00 | 0.03 | 0.03 | 92 | 1015.7 |
| 20260508083721 | 16 | 145 | 4.8 | 8.0 | 0.00 | 0.03 | 0.03 | 93 | 1015.6 |
| 20260508083219 | 16 | 163 | 3.2 | 3.2 | 0.00 | 0.03 | 0.03 | 93 | 1016.2 |
| 20260508082713 | 16 | 195 | 0.0 | 0.0 | 0.00 | 0.03 | 0.03 | 92 | 1016.5 |
| 20260508082212 | 16 | 195 | 0.0 | 0.0 | 0.00 | 0.03 | 0.03 | 91 | 1016.7 |
| 20260508081709 | 16 | 195 | 0.0 | 0.0 | 0.00 | 0.03 | 0.03 | 90 | 1016.6 |
| 20260508081205 | 16 | 195 | 0.0 | 0.0 | 0.18 | 0.03 | 0.03 | 90 | 1016.7 |
| 20260508080702 | 16 | 222 | 0.0 | 0.0 | 0.18 | 0.03 | 0.03 | 88 | 1017.1 |
| 20260508080200 | 16 | 239 | 0.0 | 0.0 | 0.18 | 0.03 | 0.03 | 86 | 1017.2 |
| 20260508075656 | 16 | 240 | 1.6 | 1.6 | 0.00 | 0.00 | 0.00 | 85 | 1017.2 |
| 20260508075154 | 16 | 239 | 0.0 | 0.0 | 0.00 | 0.00 | 0.00 | 85 | 1017.2 |
| 20260508074651 | 16 | 244 | 0.0 | 0.0 | 0.00 | 0.00 | 0.00 | 85 | 1017.3 |
| 20260508074148 | 16 | 205 | 1.6 | 1.6 | 0.00 | 0.00 | 0.00 | 85 | 1017.0 |
| 20260508073645 | 16 | 189 | 0.0 | 0.0 | 0.00 | 0.00 | 0.00 | 85 | 1016.6 |
| 20260508073143 | 16 | 189 | 0.0 | 0.0 | 0.00 | 0.00 | 0.00 | 86 | 1016.5 |
| 20260508072638 | 16 | 189 | 0.0 | 0.0 | 0.00 | 0.00 | 0.00 | 86 | 1016.6 |
| 20260508072136 | 16 | 189 | 0.0 | 0.0 | 0.00 | 0.00 | 0.00 | 86 | 1016.8 |
| 20260508071633 | 16 | 189 | 0.0 | 0.0 | 0.00 | 0.00 | 0.00 | 87 | 1016.8 |
| 20260508071131 | 15 | 189 | 0.0 | 0.0 | 0.00 | 0.00 | 0.00 | 88 | 1016.7 |
| 20260508070629 | 15 | 189 | 0.0 | 0.0 | 0.00 | 0.00 | 0.00 | 88 | 1016.8 |
| 20260508070127 | 15 | 189 | 0.0 | 0.0 | 0.00 | 0.00 | 0.00 | 88 | 1016.9 |
| 20260508065624 | 15 | 188 | 0.0 | 0.0 | 0.00 | 0.00 | 0.00 | 88 | 1016.8 |
| 20260508065122 | 15 | 188 | 0.0 | 0.0 | 0.00 | 0.00 | 0.00 | 88 | 1016.8 |
| 20260508064619 | 15 | 189 | 0.0 | 0.0 | 0.00 | 0.00 | 0.00 | 88 | 1017.2 |
| 20260508064117 | 15 | 189 | 0.0 | 0.0 | 0.00 | 0.00 | 0.00 | 88 | 1017.3 |
| 20260508063614 | 15 | 189 | 0.0 | 0.0 | 0.00 | 0.00 | 0.00 | 87 | 1017.4 |
| 20260508063112 | 15 | 189 | 0.0 | 0.0 | 0.00 | 0.00 | 0.00 | 88 | 1017.2 |
| 20260508062610 | 15 | 189 | 0.0 | 0.0 | 0.00 | 0.00 | 0.00 | 88 | 1017.4 |
| 20260508062106 | 15 | 189 | 0.0 | 0.0 | 0.00 | 0.00 | 0.00 | 88 | 1017.4 |
| 20260508061604 | 15 | 189 | 0.0 | 0.0 | 0.00 | 0.00 | 0.00 | 88 | 1017.2 |
| 20260508061101 | 15 | 189 | 0.0 | 0.0 | 0.00 | 0.00 | 0.00 | 88 | 1017.2 |
| 20260508060557 | 15 | 189 | 0.0 | 0.0 | 0.00 | 0.00 | 0.00 | 88 | 1017.3 |
| 20260508060055 | 15 | 189 | 0.0 | 0.0 | 0.00 | 0.00 | 0.00 | 88 | 1017.0 |
| 20260508055550 | 15 | 189 | 0.0 | 0.0 | 0.00 | 0.00 | 0.00 | 88 | 1017.2 |
| 20260508055047 | 15 | 189 | 0.0 | 0.0 | 0.00 | 0.00 | 0.00 | 88 | 1017.3 |
| 20260508054544 | 15 | 189 | 0.0 | 0.0 | 0.00 | 0.00 | 0.00 | 87 | 1017.2 |
| 20260508054041 | 15 | 189 | 0.0 | 0.0 | 0.00 | 0.00 | 0.00 | 87 | 1017.2 |
| 20260508053538 | 15 | 189 | 0.0 | 0.0 | 0.00 | 0.00 | 0.00 | 87 | 1017.3 |
| 20260508053036 | 15 | 189 | 0.0 | 0.0 | 0.00 | 0.00 | 0.00 | 86 | 1017.6 |
| 20260508052533 | 15 | 189 | 0.0 | 0.0 | 0.00 | 0.00 | 0.00 | 86 | 1017.4 |
| 20260508052030 | 15 | 189 | 0.0 | 0.0 | 0.00 | 0.00 | 0.00 | 86 | 1017.4 |
| 20260508051526 | 15 | 189 | 0.0 | 0.0 | 0.00 | 0.00 | 0.00 | 86 | 1017.4 |
| 20260508051021 | 15 | 189 | 0.0 | 0.0 | 0.00 | 0.00 | 0.00 | 86 | 1017.2 |
| 20260508050518 | 15 | 189 | 0.0 | 0.0 | 0.00 | 0.00 | 0.00 | 85 | 1017.0 |
| 20260508050015 | 15 | 189 | 0.0 | 0.0 | 0.00 | 0.00 | 0.00 | 86 | 1017.1 |
| 20260508045512 | 15 | 189 | 0.0 | 0.0 | 0.00 | 0.00 | 0.00 | 85 | 1017.4 |
| 20260508045009 | 15 | 189 | 0.0 | 0.0 | 0.00 | 0.00 | 0.00 | 85 | 1017.5 |
| 20260508044506 | 16 | 189 | 0.0 | 0.0 | 0.00 | 0.00 | 0.00 | 85 | 1017.3 |
| 20260508044002 | 16 | 189 | 0.0 | 0.0 | 0.00 | 0.00 | 0.00 | 84 | 1017.3 |
| 20260508043459 | 16 | 189 | 0.0 | 0.0 | 0.00 | 0.00 | 0.00 | 84 | 1017.1 |
| 20260508042955 | 16 | 189 | 0.0 | 0.0 | 0.00 | 0.00 | 0.00 | 83 | 1017.1 |
| 20260508042453 | 16 | 189 | 0.0 | 0.0 | 0.00 | 0.00 | 0.00 | 83 | 1017.0 |
| 20260508041950 | 16 | 189 | 0.0 | 0.0 | 0.00 | 0.00 | 0.00 | 82 | 1017.3 |
| 20260508041446 | 16 | 189 | 0.0 | 0.0 | 0.00 | 0.00 | 0.00 | 82 | 1017.3 |
| 20260508040943 | 16 | 189 | 0.0 | 0.0 | 0.00 | 0.00 | 0.00 | 81 | 1017.0 |
| 20260508040440 | 16 | 189 | 0.0 | 0.0 | 0.00 | 0.00 | 0.00 | 81 | 1017.1 |
| 20260508035938 | 16 | 189 | 0.0 | 0.0 | 0.00 | 0.00 | 0.00 | 80 | 1017.0 |
| 20260508035435 | 16 | 189 | 0.0 | 0.0 | 0.00 | 0.00 | 0.00 | 80 | 1017.1 |
| 20260508034931 | 17 | 189 | 0.0 | 0.0 | 0.00 | 0.00 | 0.00 | 80 | 1017.1 |
| 20260508034429 | 16 | 189 | 0.0 | 0.0 | 0.00 | 0.00 | 0.00 | 79 | 1017.1 |
| 20260508033925 | 16 | 189 | 0.0 | 0.0 | 0.00 | 0.00 | 0.00 | 78 | 1017.1 |
| 20260508033424 | 17 | 189 | 0.0 | 0.0 | 0.00 | 0.00 | 0.00 | 78 | 1016.9 |
| 20260508032921 | 17 | 189 | 0.0 | 0.0 | 0.00 | 0.00 | 0.00 | 77 | 1017.1 |
| 20260508032418 | 17 | 189 | 0.0 | 0.0 | 0.00 | 0.00 | 0.00 | 76 | 1017.1 |
| 20260508031915 | 17 | 189 | 0.0 | 0.0 | 0.00 | 0.00 | 0.00 | 77 | 1017.0 |
| 20260508031412 | 17 | 189 | 0.0 | 0.0 | 0.00 | 0.00 | 0.00 | 76 | 1017.2 |
| 20260508030908 | 17 | 189 | 0.0 | 0.0 | 0.00 | 0.00 | 0.00 | 76 | 1016.9 |
| 20260508030405 | 17 | 189 | 0.0 | 0.0 | 0.00 | 0.00 | 0.00 | 75 | 1016.9 |
| 20260508025902 | 17 | 189 | 0.0 | 0.0 | 0.00 | 0.00 | 0.00 | 74 | 1016.7 |
| 20260508025359 | 17 | 189 | 0.0 | 0.0 | 0.00 | 0.00 | 0.00 | 73 | 1016.8 |
| 20260508024856 | 17 | 189 | 0.0 | 0.0 | 0.00 | 0.00 | 0.00 | 73 | 1017.0 |
| 20260508024352 | 17 | 189 | 0.0 | 0.0 | 0.00 | 0.00 | 0.00 | 73 | 1016.9 |
| 20260508023849 | 18 | 189 | 0.0 | 0.0 | 0.00 | 0.00 | 0.00 | 72 | 1016.8 |
| 20260508023346 | 18 | 189 | 0.0 | 0.0 | 0.00 | 0.00 | 0.00 | 72 | 1017.1 |
| 20260508022843 | 18 | 189 | 0.0 | 0.0 | 0.00 | 0.00 | 0.00 | 72 | 1016.7 |
| 20260508022338 | 18 | 189 | 0.0 | 0.0 | 0.00 | 0.00 | 0.00 | 72 | 1016.8 |
| 20260508021836 | 18 | 189 | 0.0 | 0.0 | 0.00 | 0.00 | 0.00 | 72 | 1016.7 |
| 20260508021332 | 18 | 188 | 0.0 | 0.0 | 0.00 | 0.00 | 0.00 | 71 | 1016.6 |
| 20260508020828 | 18 | 188 | 0.0 | 0.0 | 0.00 | 0.00 | 0.00 | 71 | 1016.5 |
| 20260508020326 | 18 | 187 | 1.6 | 1.6 | 0.00 | 0.00 | 0.00 | 70 | 1016.5 |
| 20260508015823 | 18 | 177 | 1.6 | 1.6 | 0.00 | 0.00 | 0.00 | 71 | 1016.4 |
| 20260508015320 | 18 | 185 | 0.0 | 0.0 | 0.00 | 0.00 | 0.00 | 71 | 1016.5 |
| 20260508014817 | 18 | 188 | 0.0 | 0.0 | 0.00 | 0.00 | 0.00 | 71 | 1016.5 |
| 20260508014314 | 18 | 188 | 0.0 | 0.0 | 0.00 | 0.00 | 0.00 | 70 | 1016.5 |
| 20260508013809 | 18 | 187 | 0.0 | 0.0 | 0.00 | 0.00 | 0.00 | 69 | 1016.5 |
| 20260508013306 | 18 | 193 | 0.0 | 0.0 | 0.00 | 0.00 | 0.00 | 69 | 1016.7 |
| 20260508012803 | 19 | 197 | 0.0 | 1.6 | 0.00 | 0.00 | 0.00 | 69 | 1016.5 |
| 20260508012300 | 19 | 196 | 0.0 | 1.6 | 0.00 | 0.00 | 0.00 | 68 | 1016.3 |
| 20260508011758 | 19 | 195 | 0.0 | 1.6 | 0.00 | 0.00 | 0.00 | 68 | 1016.3 |
| 20260508011255 | 19 | 194 | 0.0 | 0.0 | 0.00 | 0.00 | 0.00 | 68 | 1016.2 |
| 20260508010752 | 19 | 196 | 0.0 | 0.0 | 0.00 | 0.00 | 0.00 | 67 | 1016.5 |
| 20260508010250 | 19 | 200 | 0.0 | 0.0 | 0.00 | 0.00 | 0.00 | 67 | 1016.6 |
| 20260508005747 | 19 | 196 | 1.6 | 3.2 | 0.00 | 0.00 | 0.00 | 66 | 1016.3 |
| 20260508005244 | 20 | 196 | 0.0 | 0.0 | 0.00 | 0.00 | 0.00 | 66 | 1016.6 |
| 20260508004739 | 20 | 184 | 1.6 | 1.6 | 0.00 | 0.00 | 0.00 | 65 | 1016.4 |
| 20260508004236 | 20 | 193 | 1.6 | 1.6 | 0.00 | 0.00 | 0.00 | 65 | 1016.4 |
| 20260508003732 | 20 | 174 | 4.8 | 4.8 | 0.00 | 0.00 | 0.00 | 65 | 1016.7 |
| 20260508003230 | 20 | 195 | 1.6 | 1.6 | 0.00 | 0.00 | 0.00 | 65 | 1016.3 |
| 20260508002726 | 20 | 197 | 1.6 | 1.6 | 0.00 | 0.00 | 0.00 | 64 | 1016.5 |
| 20260508002224 | 20 | 186 | 0.0 | 1.6 | 0.00 | 0.00 | 0.00 | 64 | 1016.5 |
| 20260508001719 | 20 | 194 | 0.0 | 0.0 | 0.00 | 0.00 | 0.00 | 64 | 1016.4 |
| 20260508001215 | 20 | 133 | 1.6 | 3.2 | 0.00 | 0.00 | 0.00 | 64 | 1016.7 |
| 20260508000711 | 20 | 192 | 1.6 | 4.8 | 0.00 | 0.00 | 0.00 | 64 | 1016.5 |
| 20260508000211 | 20 | 180 | 6.4 | 8.0 | 0.00 | 0.00 | 0.00 | 64 | 1016.6 |
| 20260507235705 | 20 | 193 | 4.8 | 4.8 | 0.00 | 0.00 | 0.00 | 64 | 1016.4 |
| 20260507235203 | 20 | 197 | 3.2 | 3.2 | 0.00 | 0.00 | 0.00 | 64 | 1016.4 |
| 20260507234659 | 20 | 179 | 1.6 | 3.2 | 0.00 | 0.00 | 0.00 | 64 | 1016.6 |
| 20260507234156 | 20 | 192 | 4.8 | 8.0 | 0.00 | 0.00 | 0.00 | 64 | 1016.4 |
| 20260507233653 | 20 | 181 | 1.6 | 1.6 | 0.00 | 0.00 | 0.00 | 64 | 1016.4 |
| 20260507233151 | 20 | 185 | 1.6 | 3.2 | 0.00 | 0.00 | 0.00 | 63 | 1016.5 |
| 20260507232648 | 21 | 196 | 3.2 | 8.0 | 0.00 | 0.00 | 0.00 | 63 | 1016.4 |
| 20260507232145 | 21 | 205 | 3.2 | 3.2 | 0.00 | 0.00 | 0.00 | 62 | 1016.4 |
| 20260507231641 | 21 | 189 | 3.2 | 3.2 | 0.00 | 0.00 | 0.00 | 62 | 1016.6 |
| 20260507231138 | 21 | 181 | 4.8 | 4.8 | 0.00 | 0.00 | 0.00 | 62 | 1016.7 |
| 20260507230635 | 21 | 216 | 4.8 | 8.0 | 0.00 | 0.00 | 0.00 | 62 | 1016.4 |
| 20260507230132 | 21 | 180 | 3.2 | 3.2 | 0.00 | 0.00 | 0.00 | 61 | 1016.4 |
| 20260507225632 | 22 | 186 | 1.6 | 1.6 | 0.00 | 0.00 | 0.00 | 59 | 1016.4 |
| 20260507225129 | 22 | 166 | 3.2 | 4.8 | 0.00 | 0.00 | 0.00 | 55 | 1016.4 |
| 20260507224624 | 22 | 164 | 0.0 | 1.6 | 0.00 | 0.00 | 0.00 | 53 | 1016.5 |
| 20260507224121 | 22 | 149 | 0.0 | 0.0 | 0.00 | 0.00 | 0.00 | 53 | 1016.5 |
| 20260507223617 | 22 | 158 | 0.0 | 0.0 | 0.00 | 0.00 | 0.00 | 53 | 1016.5 |
| 20260507223114 | 22 | 139 | 0.0 | 1.6 | 0.00 | 0.00 | 0.00 | 53 | 1016.5 |
| 20260507222611 | 22 | 197 | 3.2 | 4.8 | 0.00 | 0.00 | 0.00 | 51 | 1016.5 |
| 20260507222108 | 22 | 160 | 0.0 | 0.0 | 0.00 | 0.00 | 0.00 | 52 | 1016.6 |
| 20260507221604 | 22 | 146 | 0.0 | 1.6 | 0.00 | 0.00 | 0.00 | 52 | 1016.4 |
| 20260507221101 | 22 | 87 | 1.6 | 1.6 | 0.00 | 0.00 | 0.00 | 52 | 1016.7 |
| 20260507220558 | 22 | 126 | 0.0 | 1.6 | 0.00 | 0.00 | 0.00 | 52 | 1016.8 |
| 20260507220055 | 22 | 167 | 0.0 | 0.0 | 0.00 | 0.00 | 0.00 | 52 | 1016.8 |
| 20260507215551 | 23 | 120 | 1.6 | 1.6 | 0.00 | 0.00 | 0.00 | 52 | 1016.7 |
| 20260507215050 | 22 | 83 | 1.6 | 3.2 | 0.00 | 0.00 | 0.00 | 52 | 1016.6 |
| 20260507214546 | 22 | 130 | 0.0 | 1.6 | 0.00 | 0.00 | 0.00 | 53 | 1016.9 |
| 20260507214042 | 22 | 94 | 1.6 | 1.6 | 0.00 | 0.00 | 0.00 | 51 | 1017.1 |
| 20260507213539 | 22 | 136 | 1.6 | 3.2 | 0.00 | 0.00 | 0.00 | 51 | 1016.8 |
| 20260507213036 | 23 | 85 | 0.0 | 1.6 | 0.00 | 0.00 | 0.00 | 51 | 1017.2 |
| 20260507212532 | 23 | 129 | 1.6 | 3.2 | 0.00 | 0.00 | 0.00 | 51 | 1017.1 |
| 20260507212029 | 22 | 109 | 0.0 | 1.6 | 0.00 | 0.00 | 0.00 | 53 | 1017.1 |
| 20260507211526 | 22 | 67 | 1.6 | 1.6 | 0.00 | 0.00 | 0.00 | 53 | 1017.0 |
| 20260507211022 | 22 | 156 | 0.0 | 1.6 | 0.00 | 0.00 | 0.00 | 54 | 1017.2 |
| 20260507210519 | 22 | 109 | 0.0 | 1.6 | 0.00 | 0.00 | 0.00 | 54 | 1017.2 |
| 20260507210016 | 22 | 168 | 0.0 | 0.0 | 0.00 | 0.00 | 0.00 | 54 | 1017.5 |
| 20260507205512 | 23 | 60 | 1.6 | 1.6 | 0.00 | 0.00 | 0.00 | 53 | 1017.0 |
| 20260507205009 | 22 | 205 | 0.0 | 0.0 | 0.00 | 0.00 | 0.00 | 53 | 1017.3 |
| 20260507204505 | 23 | 132 | 3.2 | 4.8 | 0.00 | 0.00 | 0.00 | 53 | 1017.1 |
| 20260507204003 | 23 | 159 | 0.0 | 0.0 | 0.00 | 0.00 | 0.00 | 53 | 1017.1 |
| 20260507203501 | 23 | 107 | 0.0 | 1.6 | 0.00 | 0.00 | 0.00 | 54 | 1017.2 |
| 20260507202957 | 23 | 131 | 3.2 | 3.2 | 0.00 | 0.00 | 0.00 | 51 | 1017.2 |
| 20260507202453 | 22 | 111 | 1.6 | 1.6 | 0.00 | 0.00 | 0.00 | 53 | 1017.5 |
| 20260507201949 | 22 | 63 | 1.6 | 1.6 | 0.00 | 0.00 | 0.00 | 53 | 1017.6 |
| 20260507201449 | 23 | 92 | 1.6 | 3.2 | 0.00 | 0.00 | 0.00 | 53 | 1017.5 |
| 20260507200947 | 23 | 85 | 1.6 | 1.6 | 0.00 | 0.00 | 0.00 | 53 | 1017.8 |
| 20260507200442 | 23 | 146 | 3.2 | 3.2 | 0.00 | 0.00 | 0.00 | 54 | 1017.8 |
| 20260507195938 | 23 | 164 | 3.2 | 3.2 | 0.00 | 0.00 | 0.00 | 52 | 1017.9 |
| 20260507195436 | 23 | 152 | 3.2 | 3.2 | 0.00 | 0.00 | 0.00 | 53 | 1017.7 |
| 20260507194933 | 23 | 96 | 0.0 | 0.0 | 0.00 | 0.00 | 0.00 | 53 | 1017.9 |
| 20260507194430 | 23 | 246 | 0.0 | 0.0 | 0.00 | 0.00 | 0.00 | 50 | 1018.1 |
| 20260507193926 | 23 | 155 | 1.6 | 1.6 | 0.00 | 0.00 | 0.00 | 50 | 1018.3 |
| 20260507193423 | 23 | 309 | 4.8 | 4.8 | 0.00 | 0.00 | 0.00 | 50 | 1018.1 |
| 20260507192920 | 23 | 104 | 1.6 | 3.2 | 0.00 | 0.00 | 0.00 | 51 | 1018.1 |
| 20260507192415 | 23 | 283 | 1.6 | 3.2 | 0.00 | 0.00 | 0.00 | 51 | 1018.1 |
| 20260507191913 | 24 | 63 | 1.6 | 1.6 | 0.00 | 0.00 | 0.00 | 51 | 1018.4 |
| 20260507191409 | 24 | 305 | 4.8 | 4.8 | 0.00 | 0.00 | 0.00 | 49 | 1018.4 |
| 20260507190905 | 23 | 157 | 1.6 | 1.6 | 0.00 | 0.00 | 0.00 | 52 | 1018.6 |
| 20260507190403 | 23 | 69 | 1.6 | 3.2 | 0.00 | 0.00 | 0.00 | 52 | 1018.5 |
| 20260507185902 | 23 | 277 | 1.6 | 3.2 | 0.00 | 0.00 | 0.00 | 56 | 1018.7 |
| 20260507185359 | 23 | 343 | 1.6 | 1.6 | 0.00 | 0.00 | 0.00 | 52 | 1018.3 |
| 20260507184856 | 22 | 132 | 3.2 | 3.2 | 0.00 | 0.00 | 0.00 | 53 | 1018.6 |
| 20260507184354 | 22 | 351 | 6.4 | 8.0 | 0.00 | 0.00 | 0.00 | 53 | 1018.5 |
| 20260507183850 | 22 | 274 | 1.6 | 3.2 | 0.00 | 0.00 | 0.00 | 52 | 1018.6 |
| 20260507183347 | 22 | 15 | 4.8 | 4.8 | 0.00 | 0.00 | 0.00 | 51 | 1018.6 |
| 20260507182845 | 22 | 123 | 3.2 | 4.8 | 0.00 | 0.00 | 0.00 | 51 | 1018.8 |
| 20260507182341 | 22 | 326 | 6.4 | 11.3 | 0.00 | 0.00 | 0.00 | 51 | 1018.8 |
| 20260507181837 | 22 | 278 | 3.2 | 4.8 | 0.00 | 0.00 | 0.00 | 53 | 1019.1 |
| 20260507181333 | 21 | 44 | 3.2 | 3.2 | 0.00 | 0.00 | 0.00 | 54 | 1018.8 |
| 20260507180830 | 21 | 343 | 3.2 | 4.8 | 0.00 | 0.00 | 0.00 | 53 | 1019.1 |
| 20260507180327 | 22 | 35 | 1.6 | 1.6 | 0.00 | 0.00 | 0.00 | 54 | 1019.3 |
| 20260507175822 | 22 | 320 | 4.8 | 4.8 | 0.00 | 0.00 | 0.00 | 54 | 1019.2 |
| 20260507175320 | 21 | 358 | 1.6 | 3.2 | 0.00 | 0.00 | 0.00 | 56 | 1019.4 |
| 20260507174817 | 21 | 261 | 1.6 | 1.6 | 0.00 | 0.00 | 0.00 | 56 | 1019.4 |
| 20260507174315 | 21 | 306 | 4.8 | 4.8 | 0.00 | 0.00 | 0.00 | 56 | 1019.4 |
| 20260507173812 | 21 | 263 | 4.8 | 8.0 | 0.00 | 0.00 | 0.00 | 56 | 1019.6 |
| 20260507173309 | 21 | 69 | 1.6 | 1.6 | 0.00 | 0.00 | 0.00 | 56 | 1019.9 |
| 20260507172805 | 21 | 312 | 1.6 | 1.6 | 0.00 | 0.00 | 0.00 | 56 | 1019.8 |
| 20260507172306 | 21 | 11 | 3.2 | 3.2 | 0.00 | 0.00 | 0.00 | 56 | 1020.2 |
| 20260507171758 | 21 | 246 | 3.2 | 3.2 | 0.00 | 0.00 | 0.00 | 57 | 1020.1 |
| 20260507171255 | 20 | 58 | 3.2 | 3.2 | 0.00 | 0.00 | 0.00 | 55 | 1020.3 |
| 20260507170752 | 20 | 330 | 6.4 | 8.0 | 0.00 | 0.00 | 0.00 | 56 | 1020.5 |
| 20260507170248 | 21 | 308 | 8.0 | 11.3 | 0.00 | 0.00 | 0.00 | 57 | 1020.7 |
| 20260507165744 | 20 | 21 | 0.0 | 0.0 | 0.00 | 0.00 | 0.00 | 59 | 1020.8 |
| 20260507165240 | 21 | 283 | 6.4 | 9.7 | 0.00 | 0.00 | 0.00 | 57 | 1020.8 |
| 20260507164737 | 20 | 100 | 1.6 | 1.6 | 0.00 | 0.00 | 0.00 | 60 | 1020.7 |
| 20260507164234 | 20 | 286 | 3.2 | 3.2 | 0.00 | 0.00 | 0.00 | 60 | 1020.8 |
| 20260507163731 | 20 | 313 | 4.8 | 9.7 | 0.00 | 0.00 | 0.00 | 60 | 1020.8 |
| 20260507163229 | 20 | 303 | 4.8 | 4.8 | 0.00 | 0.00 | 0.00 | 60 | 1021.1 |
| 20260507162724 | 20 | 303 | 1.6 | 1.6 | 0.00 | 0.00 | 0.00 | 60 | 1021.0 |
| 20260507162221 | 19 | 38 | 0.0 | 0.0 | 0.00 | 0.00 | 0.00 | 63 | 1021.1 |
| 20260507161718 | 19 | 58 | 1.6 | 3.2 | 0.00 | 0.00 | 0.00 | 62 | 1020.8 |
| 20260507161214 | 18 | 210 | 1.6 | 3.2 | 0.00 | 0.00 | 0.00 | 65 | 1020.8 |
| 20260507160710 | 18 | 162 | 1.6 | 1.6 | 0.00 | 0.00 | 0.00 | 64 | 1021.1 |
| 20260507160207 | 18 | 292 | 1.6 | 3.2 | 0.00 | 0.00 | 0.00 | 63 | 1020.9 |
| 20260507155702 | 19 | 116 | 0.0 | 0.0 | 0.00 | 0.00 | 0.00 | 64 | 1020.9 |
| 20260507155159 | 18 | 131 | 0.0 | 1.6 | 0.00 | 0.00 | 0.00 | 65 | 1021.0 |
| 20260507154655 | 18 | 178 | 1.6 | 1.6 | 0.00 | 0.00 | 0.00 | 65 | 1021.2 |
| 20260507154153 | 18 | 62 | 1.6 | 1.6 | 0.00 | 0.00 | 0.00 | 65 | 1021.0 |
| 20260507153649 | 18 | 353 | 0.0 | 1.6 | 0.00 | 0.00 | 0.00 | 65 | 1021.1 |
| 20260507153146 | 18 | 262 | 1.6 | 3.2 | 0.00 | 0.00 | 0.00 | 67 | 1021.1 |
| 20260507152642 | 18 | 285 | 1.6 | 3.2 | 0.00 | 0.00 | 0.00 | 66 | 1021.2 |
| 20260507152138 | 18 | 320 | 3.2 | 4.8 | 0.00 | 0.00 | 0.00 | 64 | 1021.3 |
| 20260507151635 | 18 | 14 | 1.6 | 1.6 | 0.00 | 0.00 | 0.00 | 67 | 1021.2 |
| 20260507151132 | 17 | 78 | 0.0 | 1.6 | 0.00 | 0.00 | 0.00 | 68 | 1021.4 |
| 20260507150629 | 17 | 279 | 1.6 | 1.6 | 0.00 | 0.00 | 0.00 | 71 | 1021.5 |
| 20260507150125 | 16 | 31 | 4.8 | 4.8 | 0.00 | 0.00 | 0.00 | 71 | 1021.4 |
| 20260507145626 | 17 | 297 | 6.4 | 9.7 | 0.00 | 0.00 | 0.00 | 70 | 1021.6 |
| 20260507145124 | 17 | 79 | 1.6 | 1.6 | 0.00 | 0.00 | 0.00 | 71 | 1021.4 |
| 20260507144620 | 17 | 303 | 0.0 | 1.6 | 0.00 | 0.00 | 0.00 | 73 | 1021.4 |
| 20260507144118 | 17 | 332 | 0.0 | 1.6 | 0.00 | 0.00 | 0.00 | 73 | 1021.6 |
| 20260507143614 | 16 | 135 | 0.0 | 0.0 | 0.00 | 0.00 | 0.00 | 74 | 1021.5 |
| 20260507143112 | 16 | 127 | 0.0 | 1.6 | 0.00 | 0.00 | 0.00 | 74 | 1021.6 |
| 20260507142607 | 16 | 81 | 0.0 | 0.0 | 0.00 | 0.00 | 0.00 | 75 | 1021.5 |
| 20260507142104 | 16 | 336 | 1.6 | 1.6 | 0.00 | 0.00 | 0.00 | 76 | 1021.7 |
| 20260507141600 | 15 | 320 | 0.0 | 1.6 | 0.00 | 0.00 | 0.00 | 77 | 1021.5 |
| 20260507141057 | 15 | 275 | 1.6 | 1.6 | 0.00 | 0.00 | 0.00 | 78 | 1021.7 |
| 20260507140554 | 16 | 268 | 1.6 | 1.6 | 0.00 | 0.00 | 0.00 | 77 | 1021.7 |
| 20260507140051 | 15 | 310 | 0.0 | 0.0 | 0.00 | 0.00 | 0.00 | 80 | 1021.9 |
| 20260507135548 | 15 | 276 | 1.6 | 1.6 | 0.00 | 0.00 | 0.00 | 82 | 1022.1 |
| 20260507135045 | 14 | 271 | 1.6 | 1.6 | 0.00 | 0.00 | 0.00 | 85 | 1022.0 |
| 20260507134542 | 14 | 276 | 0.0 | 0.0 | 0.00 | 0.00 | 0.00 | 86 | 1021.9 |
| 20260507134037 | 13 | 276 | 0.0 | 1.6 | 0.00 | 0.00 | 0.00 | 88 | 1022.2 |
| 20260507133534 | 13 | 283 | 1.6 | 1.6 | 0.00 | 0.00 | 0.00 | 89 | 1022.1 |
| 20260507133032 | 13 | 263 | 0.0 | 1.6 | 0.00 | 0.00 | 0.00 | 91 | 1022.1 |
| 20260507132528 | 13 | 262 | 1.6 | 1.6 | 0.00 | 0.00 | 0.00 | 92 | 1022.1 |
| 20260507132025 | 13 | 280 | 1.6 | 3.2 | 0.00 | 0.00 | 0.00 | 93 | 1022.1 |
| 20260507131522 | 12 | 255 | 1.6 | 1.6 | 0.00 | 0.00 | 0.00 | 94 | 1022.1 |
| 20260507131019 | 12 | 262 | 3.2 | 3.2 | 0.00 | 0.00 | 0.00 | 95 | 1022.0 |
| 20260507130515 | 12 | 259 | 0.0 | 1.6 | 0.00 | 0.00 | 0.00 | 96 | 1021.9 |
| 20260507130014 | 12 | 262 | 1.6 | 1.6 | 0.00 | 0.00 | 0.00 | 97 | 1021.9 |
| 20260507125512 | 12 | 265 | 0.0 | 0.0 | 0.00 | 0.00 | 0.00 | 97 | 1022.0 |
| 20260507125011 | 11 | 274 | 0.0 | 0.0 | 0.00 | 0.00 | 0.00 | 97 | 1022.0 |
| 20260507124506 | 11 | 275 | 0.0 | 0.0 | 0.00 | 0.00 | 0.00 | 98 | 1021.6 |
| 20260507124003 | 11 | 275 | 0.0 | 0.0 | 0.00 | 0.00 | 0.00 | 98 | 1021.7 |
| 20260507123501 | 11 | 275 | 0.0 | 0.0 | 0.00 | 0.00 | 0.00 | 98 | 1021.9 |
| 20260507122957 | 11 | 275 | 0.0 | 0.0 | 0.00 | 0.00 | 0.00 | 98 | 1021.8 |
| 20260507122453 | 11 | 275 | 0.0 | 0.0 | 0.00 | 0.00 | 0.00 | 98 | 1021.7 |
| 20260507121949 | 11 | 275 | 0.0 | 0.0 | 0.00 | 0.00 | 0.00 | 98 | 1021.8 |
| 20260507121444 | 11 | 275 | 0.0 | 0.0 | 0.00 | 0.00 | 0.00 | 98 | 1021.4 |
| 20260507120941 | 10 | 275 | 0.0 | 0.0 | 0.00 | 0.00 | 0.00 | 98 | 1021.5 |
| 20260507120437 | 10 | 275 | 0.0 | 0.0 | 0.00 | 0.00 | 0.00 | 98 | 1021.4 |
| 20260507115934 | 10 | 275 | 0.0 | 0.0 | 0.00 | 0.00 | 0.00 | 98 | 1021.3 |
| 20260507115430 | 10 | 275 | 0.0 | 0.0 | 0.00 | 0.00 | 0.00 | 98 | 1021.4 |
| 20260507114926 | 10 | 275 | 0.0 | 0.0 | 0.00 | 0.00 | 0.00 | 98 | 1021.2 |
| 20260507114423 | 10 | 275 | 0.0 | 0.0 | 0.00 | 0.00 | 0.00 | 98 | 1020.9 |
| 20260507113920 | 10 | 276 | 0.0 | 0.0 | 0.00 | 0.00 | 0.00 | 98 | 1021.1 |
| 20260507113417 | 10 | 276 | 0.0 | 0.0 | 0.00 | 0.00 | 0.00 | 98 | 1021.2 |
| 20260507112914 | 10 | 276 | 0.0 | 0.0 | 0.00 | 0.00 | 0.00 | 97 | 1021.3 |
| 20260507112412 | 10 | 276 | 0.0 | 0.0 | 0.00 | 0.00 | 0.00 | 98 | 1021.1 |
| 20260507111909 | 10 | 276 | 0.0 | 0.0 | 0.00 | 0.00 | 0.00 | 97 | 1021.0 |
| 20260507111406 | 10 | 276 | 0.0 | 0.0 | 0.00 | 0.00 | 0.00 | 97 | 1021.0 |
| 20260507110902 | 10 | 276 | 0.0 | 0.0 | 0.00 | 0.00 | 0.00 | 97 | 1021.2 |
| 20260507110358 | 11 | 276 | 0.0 | 0.0 | 0.00 | 0.00 | 0.00 | 97 | 1020.8 |
| 20260507105855 | 11 | 276 | 0.0 | 0.0 | 0.00 | 0.00 | 0.00 | 97 | 1020.5 |
| 20260507105352 | 11 | 276 | 0.0 | 0.0 | 0.00 | 0.00 | 0.00 | 97 | 1020.3 |
| 20260507104848 | 11 | 276 | 0.0 | 0.0 | 0.00 | 0.00 | 0.00 | 97 | 1020.3 |
| 20260507104345 | 10 | 276 | 0.0 | 0.0 | 0.00 | 0.00 | 0.00 | 97 | 1020.3 |
| 20260507103841 | 11 | 276 | 0.0 | 0.0 | 0.00 | 0.00 | 0.00 | 97 | 1019.9 |
| 20260507103338 | 10 | 276 | 0.0 | 0.0 | 0.00 | 0.00 | 0.00 | 97 | 1019.9 |